Follow iAlert.com on twitter @ialertcom
Search For Active Alerts in Your Area  
  Hi Guest:  [ Sign-up / Services ] [ Login ]

Current weather by "City, St" or "zip code"  
 

Advertise Here

Current Conditions: Quakertown Airport, PA

Fair


82.0 F

Last Updated on Sep 21 2017, 4:55 pm EDT
Humidity: 51%
Wind Speed: N 0.0 mph
Barometer 30.02 in
Dewpoint: 62.6 F
Visibility: 10.00 mi
Precip: --
Heat Index: 83 F
Wind Chill: NA
Current conditions at:

Quakertown Airport, PA (KUKT)

Lat: 40.43 Lon: 75.38

Local Radar Image active severe weather and emergency alerts image image weather storm and storm spotter reports image weather observation monitoring service image
Local
Radar
Active
Alerts
Storm Reports Obs
Monitoring

iAlert Weather and Emergency Alert Notification Services:


ialert severe weather and emergency alerts by text message and email ialert daily weather forecast by email and text message service ialert real-time weather-observation monitoring and alert notification service ialert storm report monitoring alert notification

Observation History for Quakertown Airport, PA


Time Wind
(mph)
Vis
(mi)
Weather Precip (in) Temperature (F) Relative
Humidity
Wind
Chill
(°F)
Heat
Index
(°F)
Pressure
Air Dwpt altimeter
(in)
sea level
(mb)
4:55 pm EDT N 0.0 10.00 Fair -- 82.0 62.6 51% NA 83 30.02 M
3:55 pm EDT NE 4.6 10.00 Fair -- 84.0 62.6 48% NA 85 30.02 M
2:55 pm EDT N 4.6 10.00 Fair -- 82.0 64.4 55% NA 83 30.03 M
1:55 pm EDT N 5.8 10.00 Partly Cloudy -- 82.0 62.6 51% NA 83 30.03 M
12:55 pm EDT E 6.9 10.00 Fair -- 81.0 64.4 58% NA 83 30.05 M
11:55 am EDT E 5.8 5.00 Fair -- 81.0 64.4 58% NA 83 30.07 M
10:55 am EDT N 5.8 10.00 Fair -- 77.0 66.2 69% NA NA 30.07 M
9:55 am EDT N 4.6 10.00 Fair -- 75.0 64.4 69% NA NA 30.07 M
8:55 am EDT NW 4.6 10.00 Fair -- 72.0 64.4 78% NA NA 30.07 M
7:55 am EDT N 0.0 10.00 Fair -- 64.0 62.6 94% NA NA 30.07 M
6:55 am EDT N 0.0 10.00 Mostly Cloudy -- 63.0 62.6 100% NA NA 30.06 M
5:55 am EDT N 0.0 10.00 Overcast -- 63.0 62.6 100% NA NA 30.05 M
4:55 am EDT N 0.0 10.00 Fair -- 59.0 59.0 100% NA NA 30.02 M
3:55 am EDT N 0.0 10.00 Fair -- 61.0 60.8 100% NA NA 30.01 M
2:55 am EDT N 0.0 10.00 Fair -- 63.0 62.6 100% NA NA 30.01 M
1:55 am EDT N 0.0 10.00 Fair -- 63.0 62.6 100% NA NA 30.00 M
12:55 am EDT N 0.0 10.00 Fair -- 64.0 62.6 94% NA NA 30.00 M
11:55 pm EDT N 0.0 10.00 Fair -- 64.0 62.6 94% NA NA 30.00 M
10:55 pm EDT N 0.0 10.00 Fair -- 66.0 64.4 94% NA NA 29.99 M
9:55 pm EDT N 0.0 10.00 Fair -- 68.0 64.4 88% NA NA 29.98 M
8:55 pm EDT N 0.0 10.00 Mostly Cloudy -- 72.0 66.2 83% NA NA 29.96 M
7:55 pm EDT N 0.0 10.00 Mostly Cloudy -- 73.0 66.2 78% NA NA 29.96 M
7:35 pm EDT N 0.0 10.00 Mostly Cloudy -- 73.0 64.4 74% NA NA 29.95 M
6:55 pm EDT NE 3.5 10.00 Fair -- 77.0 64.4 65% NA NA 29.95 M

Regional Weather Observation


Allentown Queen City Municipal Airport, PA (KXLL)

Fair
86.0 F

Quakertown Airport, PA (KUKT)

Fair
82.0 F

Reading, Reading Regional Airport, PA (KRDG)

A Few Clouds
86.0 F

Pottstown, Pottstown Limerick Airport, PA (KPTW)

Fair
84.0 F

Doylestown, Doylestown Airport, PA (KDYL)

Fair
82.0 F

Philadelphia, Northeast Philadelphia Airport, PA (KPNE)

Fair
84.0 F

Advertise Here